Regional Weather Roundup
Issued by NWS

Home | Current Version | Previous Version | Graphics & Text | Print | Product List | Glossary On
Versions: 1 2 3 4 5 6 7 8 9 10 11 12 13 14 15 16 17 18 19 20 21 22 23 24 25 26 27 28 29 30 31 32 33 34 35 36 37 38 39 40 41 42 43 44 45 46 47 48 49 50
000
ASUS43 KFSD 042002
RWRSD

WEATHER ROUNDUP FOR SOUTH DAKOTA
NATIONAL WEATHER SERVICE SIOUX FALLS SD
200 PM CST WED MAR 04 2015

NOTE: "FAIR" INDICATES FEW OR NO CLOUDS BELOW 12,000 FEET WITH NO
SIGNIFICANT WEATHER AND/OR OBSTRUCTIONS TO VISIBILITY.


SDZ001>005-009-010-012>017-042100-
NORTHWEST AND NORTH CENTRAL SOUTH DAKOTA

CITY           SKY/WX    TMP DP  RH WIND       PRES   REMARKS
BUFFALO          N/A     13  -5  44 W21G30    30.13  WCI  -5
FAITH            N/A     13  -6  42 NW22G31   30.24F WCI  -6
MOBRIDGE       MOSUNNY   11  -9  40 NW17G26   30.28  WCI  -6
$$

SDZ012>016-024>037-041>051-057-063-072>074-042100-
SOUTHWEST AND SOUTH CENTRAL SOUTH DAKOTA

CITY           SKY/WX    TMP DP  RH WIND       PRES   REMARKS
RAPID CTY ARPT SUNNY     16   3  56 N16       30.20  WCI   1
PIERRE         SUNNY     12  -4  48 NW21G28   30.32  WCI  -7
CUSTER         SUNNY     11 -15  30 W21G33    29.99  WCI  -8
ELLSWORTH AFB  SUNNY     15  -1  49 N21G30    30.17  WCI  -3
PHILIP         PTSUNNY   15   0  51 NW21      30.28  WCI  -2
PINE RIDGE     MOSUNNY   18   4  54 NW10      30.20  WCI   6
SPEARFISH      FAIR      10  -2  56 MISG      30.15F
WINNER         CLOUDY    14  -2  49 NW21      30.30  WCI  -4
$$

SDZ004>011-016>023-039-040-042100-
NORTHEAST SOUTH DAKOTA

CITY           SKY/WX    TMP DP  RH WIND       PRES   REMARKS
ABERDEEN       PTSUNNY    4 -10  52 NW20G30   30.36S WCI -17
WATERTOWN      PTSUNNY    2 -10  57 NW18      30.27R WCI -19
SISSETON         N/A      2  -6  69 NW20      30.32  WCI -19
$$

SDZ017-020-022-023-036>040-048>070-042100-
SOUTHEAST SOUTH DAKOTA

CITY           SKY/WX    TMP DP  RH WIND       PRES   REMARKS
SIOUX FALLS    PTSUNNY   10  -2  58 NW18G28   30.29S WCI  -8
HURON          CLOUDY     7  -6  55 NW18G28   30.36  WCI -12
MITCHELL       MOSUNNY   11  -3  53 NW16G31   30.35  WCI  -6
YANKTON        SUNNY    N/A N/A N/A NW25G33   30.33S
$$

ABBREVIATIONS USED IN REMARKS
   TC - TEMPERATURE IN CELSIUS
  WCI - WIND CHILL INDEX
   HX - HEAT INDEX
  VSB - VISIBILITY



USA.gov is the U.S. government's official web portal to all federal, state and local government web resources and services.